Date,TemperatureHighF,TemperatureAvgF,TemperatureLowF,DewpointHighF,DewpointAvgF,DewpointLowF,HumidityHigh,HumidityAvg,HumidityLow,PressureMaxIn,PressureMinIn,WindSpeedMaxMPH,WindSpeedAvgMPH,GustSpeedMaxMPH,PrecipitationSumIn
2013-1-1,23,20,16,17,14,11,89,78,64,30.12,30.00,17,4,18,0.00
2013-1-2,24,22,18,21,18,11,90,83,66,30.10,29.99,16,3,16,0.00
2013-1-3,29,26,23,25,22,17,93,83,71,30.06,29.92,27,5,27,0.00
2013-1-4,34,30,27,28,24,21,86,79,68,30.09,29.81,22,8,30,0.00
2013-1-5,35,31,24,31,24,20,88,76,65,30.18,29.83,15,3,18,0.02
2013-1-6,35,29,25,31,25,19,90,84,78,30.25,29.78,15,4,15,0.00
2013-1-7,40,32,24,31,25,19,83,75,60,30.25,29.84,37,8,37,0.02
2013-1-8,42,36,28,32,30,25,92,80,63,30.12,29.92,24,3,25,0.00
2013-1-9,39,37,33,34,29,24,82,73,65,30.40,29.75,26,8,26,0.00
2013-1-10,41,33,22,28,25,20,92,73,52,30.52,30.11,18,4,19,0.00
2013-1-11,44,39,34,43,37,28,97,93,74,30.11,29.62,19,4,21,0.62
2013-1-12,51,43,34,46,39,29,97,86,68,29.93,29.56,40,7,40,0.01
2013-1-13,34,30,25,29,27,23,94,89,81,29.95,29.80,14,2,15,0.00
2013-1-14,25,22,20,23,16,11,93,77,55,30.34,29.95,20,6,22,0.00
2013-1-15,28,22,10,22,16,5,84,74,64,30.37,30.03,19,6,21,0.00
2013-1-16,30,27,18,28,22,11,94,83,72,30.03,29.59,37,8,37,0.00
2013-1-17,18,14,12,12,5,0,83,67,53,30.31,29.99,24,7,24,0.00
2013-1-18,30,18,13,29,13,3,94,79,62,30.34,29.75,17,4,18,0.00
2013-1-19,37,29,24,35,27,20,96,92,84,29.82,29.38,27,4,27,0.37
2013-1-20,24,14,11,21,7,0,91,73,60,30.14,29.44,33,10,35,0.00
2013-1-21,12,8,2,7,1,-4,84,72,52,30.08,29.92,25,7,25,0.00
2013-1-22,8,3,-1,1,-3,-6,82,74,64,30.24,30.05,19,6,20,0.00
2013-1-23,13,10,8,8,5,1,87,77,68,30.28,30.05,17,5,20,0.00
2013-1-24,10,2,-14,4,-3,-19,86,80,66,30.68,30.28,12,2,12,0.00
2013-1-25,19,13,8,16,9,1,90,83,70,30.50,29.99,12,4,13,0.00
2013-1-26,26,15,2,18,11,-2,92,85,65,30.42,30.05,7,1,8,0.05
2013-1-27,30,25,17,25,20,14,92,82,70,30.42,30.07,15,4,15,0.00
2013-1-28,33,29,26,30,27,24,93,92,87,30.07,29.83,14,3,14,0.03
2013-1-29,48,36,30,48,35,28,98,95,90,29.99,29.46,18,4,18,0.42
2013-1-30,35,30,17,34,29,14,97,95,88,29.47,29.11,12,5,13,0.25
2013-1-31,17,14,11,14,11,7,91,86,81,29.85,29.20,14,6,17,0.00
2013-2-1,16,14,10,13,10,7,91,87,79,30.11,29.85,17,5,17,0.00
2013-2-2,15,8,1,8,4,-2,89,84,68,30.08,30.04,10,2,10,0.01
2013-2-3,18,10,-1,14,6,-5,90,85,78,30.04,29.82,17,3,18,0.00
2013-2-4,16,6,-10,8,2,-15,88,81,58,30.01,29.94,11,2,12,0.00
2013-2-5,22,12,-6,19,8,-9,90,86,81,30.01,29.69,18,4,20,0.00
2013-2-6,24,13,-5,19,9,-9,91,85,70,30.26,30.01,16,3,16,0.00
2013-2-7,25,20,17,23,18,14,93,91,89,30.25,30.14,23,8,23,0.00
2013-2-8,23,15,-3,17,11,-7,92,83,70,30.42,30.15,20,5,20,0.00
2013-2-9,28,10,-8,19,5,-12,90,80,58,30.45,30.23,9,2,9,0.00
2013-2-10,34,28,21,32,23,16,95,82,72,30.23,29.52,23,5,23,0.00
2013-2-11,38,33,25,36,31,21,96,93,85,29.75,29.34,26,6,26,0.00
2013-2-12,28,26,24,23,21,20,90,83,73,29.94,29.75,19,5,20,0.00
2013-2-13,35,31,27,30,27,22,94,86,81,29.82,29.66,21,4,21,0.01
2013-2-14,35,32,27,33,30,26,95,93,88,29.75,29.59,19,3,19,0.07
2013-2-15,23,18,13,18,13,8,90,81,70,30.14,29.91,17,5,19,0.00
2013-2-16,17,8,-3,10,3,-7,90,81,64,30.18,30.07,13,3,15,0.00
2013-2-17,21,12,1,11,5,-3,90,76,51,30.22,30.12,12,2,12,0.00
2013-2-18,36,26,14,32,18,8,94,72,58,30.13,29.44,21,7,22,0.13
2013-2-19,37,26,13,36,24,8,96,92,82,29.84,29.14,28,10,29,0.15
2013-2-20,16,12,9,12,7,4,85,80,72,30.33,29.84,21,8,21,0.00
2013-2-21,20,13,9,12,8,6,90,81,67,30.49,30.33,22,4,23,0.00
2013-2-22,29,25,15,27,23,12,93,90,88,30.36,29.82,32,8,32,0.00
2013-2-23,32,27,20,28,25,18,95,91,81,29.84,29.75,10,2,10,0.09
2013-2-24,34,26,15,29,23,13,95,90,79,30.15,29.83,12,2,12,0.03
2013-2-25,36,30,26,28,26,24,92,83,65,30.20,30.13,11,2,11,0.00
2013-2-26,34,30,23,28,25,19,89,80,74,30.19,29.81,32,9,34,0.00
2013-2-27,34,32,30,32,29,26,95,91,81,29.81,29.68,28,10,30,0.00
2013-2-28,32,29,20,31,23,13,94,80,66,30.12,29.72,19,7,19,0.00
2013-3-1,26,18,6,15,11,3,93,74,60,30.25,30.12,11,4,12,0.00
2013-3-2,26,15,4,17,9,0,90,78,67,30.24,30.13,17,4,17,0.00
2013-3-3,26,10,-4,16,6,-7,91,80,64,30.14,30.07,15,3,16,0.00
2013-3-4,28,12,-6,13,4,-10,90,74,39,30.21,30.12,9,2,9,0.00
2013-3-5,27,21,6,21,16,2,93,80,70,30.21,30.07,24,6,24,0.00
2013-3-6,37,31,26,30,26,21,94,84,72,30.28,30.11,19,4,19,0.00
2013-3-7,29,26,24,23,21,18,89,81,73,30.45,30.27,15,4,16,0.00
2013-3-8,37,26,15,29,22,13,93,87,71,30.52,30.38,14,2,14,0.00
2013-3-9,44,33,19,32,24,16,94,71,44,30.38,29.95,16,4,16,0.23
2013-3-10,41,36,34,40,35,32,97,95,91,29.95,29.78,16,3,17,0.74
2013-3-11,46,38,32,45,37,32,98,96,93,29.84,29.41,25,5,27,0.62
2013-3-12,32,26,21,32,24,18,98,91,82,29.85,29.44,14,5,15,0.00
2013-3-13,28,22,17,21,16,13,91,78,54,30.20,29.84,19,8,22,0.02
2013-3-14,32,25,10,25,18,6,90,74,50,30.25,29.97,15,4,16,0.04
2013-3-15,32,28,20,29,21,11,93,75,59,29.98,29.83,22,8,22,0.00
2013-3-16,23,18,13,20,11,7,88,74,52,30.04,29.93,16,5,17,0.00
2013-3-17,23,17,11,20,8,3,90,68,51,30.35,30.04,24,6,26,0.00
2013-3-18,37,24,13,28,18,7,92,76,50,30.25,29.50,30,9,31,0.00
2013-3-19,30,27,24,28,24,18,93,89,76,29.80,29.42,22,7,25,0.00
2013-3-20,27,23,20,23,18,14,92,80,69,29.84,29.80,26,7,26,0.00
2013-3-21,27,25,23,24,20,17,93,82,72,29.94,29.82,20,7,20,0.00
2013-3-22,34,27,22,25,22,18,90,82,68,30.06,29.92,17,5,17,0.01
2013-3-23,36,29,17,28,24,14,94,82,63,30.12,30.05,15,4,16,0.00
2013-3-24,35,29,18,24,21,15,94,74,48,30.12,29.87,15,4,15,0.00
2013-3-25,38,32,28,29,25,22,87,75,62,30.00,29.85,19,7,20,0.00
2013-3-26,41,34,30,30,28,24,93,78,50,30.12,30.00,22,4,22,0.00
2013-3-27,41,33,24,30,28,22,96,81,62,30.21,30.09,20,5,20,0.00
2013-3-28,44,35,25,30,26,23,94,74,44,30.27,30.20,17,3,17,0.00
2013-3-29,45,32,18,27,22,16,94,70,39,30.28,30.21,14,3,16,0.00
2013-3-30,49,36,22,38,24,17,93,65,30,30.22,29.78,21,3,24,0.24
2013-3-31,41,38,34,40,37,33,97,96,93,29.78,29.58,15,3,18,0.10
2013-4-2,25,24,23,14,14,12,68,65,59,30.25,30.22,14,6,16,0.00
2013-4-3,33,27,19,19,16,12,78,62,50,30.43,30.24,18,5,20,0.00
2013-4-4,40,34,26,34,25,12,94,72,46,30.25,29.92,27,6,35,0.12
2013-4-5,35,30,24,27,20,16,87,68,50,30.24,30.02,17,5,17,0.00
2013-4-6,35,30,20,32,26,17,91,84,65,30.23,29.57,28,6,28,0.14
2013-4-7,45,36,27,44,32,26,96,88,74,30.06,29.41,19,5,21,0.18
2013-4-8,40,33,26,34,30,25,96,89,76,30.06,29.82,20,6,20,0.13
2013-4-9,41,36,33,38,34,30,97,92,82,30.12,30.01,12,2,13,0.01
2013-4-10,42,35,32,31,29,22,93,78,55,30.16,30.06,17,6,19,0.00
2013-4-11,35,31,28,26,23,18,91,72,63,30.17,29.86,36,14,37,0.00
2013-4-12,33,29,27,29,27,25,94,90,84,29.87,29.63,42,13,42,0.00
2013-4-13,36,32,29,31,29,26,96,88,74,29.91,29.69,19,5,21,0.09
2013-4-14,42,34,27,30,27,24,89,74,55,30.07,29.91,21,5,21,0.00
2013-4-15,51,42,35,49,39,27,96,87,71,29.95,29.74,36,7,36,0.22
2013-4-16,45,39,30,36,31,27,92,75,60,30.33,29.84,22,5,25,0.00
2013-4-17,45,36,23,35,30,21,95,78,63,30.42,30.11,21,6,21,0.00
2013-4-18,44,39,36,41,38,33,97,94,85,30.11,29.38,23,7,24,0.37
2013-4-19,45,36,26,44,32,19,97,84,69,29.63,29.18,36,10,42,0.26
2013-4-20,33,27,21,24,17,12,85,67,51,30.47,29.63,29,8,29,0.00
2013-4-21,47,32,15,31,19,12,92,63,25,30.62,30.37,17,4,17,0.00
2013-4-22,59,44,32,38,32,26,91,62,42,30.37,30.11,17,4,17,0.00
2013-4-23,55,42,32,45,35,30,96,79,54,30.11,29.84,20,4,20,0.32
2013-4-24,44,36,27,31,27,21,93,73,41,30.00,29.89,17,4,17,0.01
2013-4-25,45,37,27,35,30,22,90,76,53,30.27,29.88,30,5,31,0.00
2013-4-26,62,42,27,40,32,24,92,71,37,30.33,30.14,20,4,21,0.00
2013-4-27,66,52,39,50,43,36,96,73,46,30.20,30.07,20,4,20,0.01
2013-4-28,70,54,36,47,40,34,94,63,30,30.07,29.79,19,5,19,0.00
2013-4-29,64,54,46,54,50,44,96,86,65,29.84,29.79,16,3,16,0.10
2013-4-30,76,62,52,60,56,50,96,80,54,29.86,29.73,26,5,27,0.11
2013-5-1,74,62,45,60,52,36,88,68,50,30.27,29.83,22,6,22,0.00
2013-5-2,71,50,37,52,41,34,93,72,46,30.28,30.13,17,4,19,0.00
2013-5-3,68,53,37,49,42,35,92,69,47,30.19,30.05,18,5,18,0.00
2013-5-4,74,64,51,52,45,29,74,52,27,30.10,30.03,24,6,24,0.00
2013-5-5,73,60,44,44,39,30,80,49,24,30.12,30.01,25,5,25,0.00
2013-5-6,74,59,39,47,40,35,88,53,27,30.09,29.99,14,3,14,0.00
2013-5-7,78,61,38,45,36,31,88,47,19,30.08,29.99,25,4,25,0.00
2013-5-8,78,63,47,45,39,32,74,45,21,30.01,29.94,14,3,14,0.00
2013-5-9,71,55,42,50,43,38,88,66,43,30.03,29.92,16,4,17,0.05
2013-5-10,46,40,37,41,37,35,93,88,81,30.04,29.93,22,6,22,0.57
2013-5-11,47,38,31,40,35,30,97,89,71,29.94,29.70,20,4,20,0.24
2013-5-12,40,36,34,35,28,24,93,74,59,30.05,29.70,31,11,34,0.04
2013-5-13,49,41,30,33,27,21,90,61,34,30.14,30.03,20,4,20,0.00
2013-5-14,65,51,40,46,39,27,88,66,46,30.03,29.59,25,7,25,0.06
2013-5-15,70,57,44,49,43,38,90,64,36,29.73,29.42,20,5,21,0.00
2013-5-16,61,50,37,42,39,35,94,68,47,30.08,29.71,19,4,19,0.00
2013-5-17,66,52,34,45,40,32,95,67,42,30.20,30.08,18,4,18,0.00
2013-5-18,63,55,43,48,43,38,88,65,50,30.19,30.01,16,4,16,0.00
2013-5-19,80,67,55,63,53,44,73,61,52,30.01,29.82,16,5,18,0.00
2013-5-20,74,62,54,64,56,50,97,82,60,29.86,29.69,23,7,24,0.34
2013-5-21,69,56,51,63,54,50,97,92,76,29.78,29.65,25,7,25,0.31
2013-5-22,58,55,52,56,54,51,98,96,93,29.75,29.67,15,5,17,0.57
2013-5-23,52,46,40,51,39,33,96,78,53,30.25,29.75,22,8,22,0.52
2013-5-24,53,42,28,37,32,26,95,71,48,30.40,30.25,16,4,16,0.00
2013-5-25,60,46,30,41,34,28,96,69,36,30.45,30.31,16,3,16,0.00
2013-5-26,66,50,32,43,36,27,96,64,26,30.38,30.23,16,2,16,0.00
2013-5-27,70,55,34,46,36,32,94,57,25,30.25,30.00,18,5,19,0.00
2013-5-28,55,53,49,53,46,34,97,80,47,30.00,29.73,17,6,18,0.17
2013-5-29,66,57,51,61,55,50,98,93,79,29.91,29.72,15,3,17,0.01
2013-5-30,85,72,58,71,64,56,98,78,53,29.91,29.80,23,4,23,0.01
2013-5-31,74,69,60,67,64,58,95,83,70,29.87,29.71,30,5,30,0.18
2013-6-1,74,65,57,66,62,55,96,90,74,29.72,29.59,19,2,19,0.25
2013-6-2,60,48,42,57,44,36,96,87,71,30.00,29.56,22,7,22,0.13
2013-6-3,57,47,32,45,38,31,96,73,49,30.12,29.99,24,4,24,0.00
2013-6-4,62,49,31,44,36,30,96,65,34,30.23,30.12,11,2,11,0.00
2013-6-5,58,52,46,48,44,42,90,76,60,30.20,30.10,16,4,16,0.00
2013-6-6,67,57,50,46,41,35,76,57,34,30.10,29.95,22,7,22,0.00
2013-6-7,73,57,37,46,41,34,91,59,27,29.98,29.88,16,3,17,0.00
2013-6-8,66,55,40,52,45,39,95,72,42,30.05,29.90,9,2,10,0.00
2013-6-9,76,60,39,57,49,37,95,69,42,30.12,29.98,17,4,17,0.00
2013-6-10,71,62,58,61,55,50,95,77,65,29.99,29.79,20,7,23,0.00
2013-6-11,75,62,55,64,59,53,98,89,65,29.85,29.78,15,2,15,0.00
2013-6-12,77,63,50,62,54,49,99,76,41,29.90,29.73,12,2,12,0.01
2013-6-13,72,60,47,59,53,46,96,79,60,30.01,29.71,21,5,21,0.00
2013-6-14,73,57,39,48,41,31,96,62,23,30.12,30.00,11,2,12,0.00
2013-6-15,74,59,41,60,48,39,95,70,36,30.02,29.81,12,2,12,0.02
2013-6-16,73,63,54,64,59,52,98,88,65,29.83,29.72,18,3,18,0.28
2013-6-17,64,56,50,56,53,48,98,88,73,30.01,29.79,14,3,14,0.01
2013-6-18,69,55,38,50,43,37,97,69,33,30.12,30.01,20,3,20,0.00
2013-6-19,68,56,38,50,45,36,96,69,41,30.17,30.08,17,3,17,0.00
2013-6-20,78,64,46,58,50,43,91,64,35,30.14,30.08,18,3,20,0.00
2013-6-21,78,66,56,68,59,51,89,81,65,30.13,29.87,20,4,26,0.05
2013-6-22,71,62,59,65,60,57,98,92,79,30.06,29.91,14,3,15,0.02
2013-6-23,85,71,62,71,65,61,95,82,54,30.00,29.81,22,4,22,0.00
2013-6-24,80,74,65,70,67,63,92,79,67,29.93,29.80,18,5,19,0.00
2013-6-25,76,69,62,69,65,60,96,88,76,29.82,29.76,18,3,18,0.33
2013-6-26,86,70,56,69,63,55,98,81,54,29.80,29.69,11,2,11,0.00
2013-6-27,80,68,61,71,64,60,97,88,62,29.75,29.63,13,2,13,0.26
2013-6-28,75,66,60,65,62,58,98,87,68,29.63,29.55,15,3,15,0.00
2013-6-29,75,66,58,63,59,55,94,79,62,29.78,29.60,17,4,17,0.01
2013-6-30,77,67,52,58,50,40,93,59,30,30.02,29.78,12,3,12,0.00
2013-7-1,73,63,47,54,48,44,92,62,38,30.16,30.02,20,5,20,0.00
2013-7-2,72,60,42,53,45,38,97,64,33,30.17,30.07,15,3,15,0.00
2013-7-3,80,66,53,57,52,47,88,64,38,30.10,30.00,13,3,13,0.00
2013-7-4,78,67,59,64,60,56,96,80,58,30.05,29.98,15,3,15,0.00
2013-7-5,86,72,58,66,60,56,95,69,42,30.03,29.94,17,3,17,0.00
2013-7-6,86,75,63,64,60,53,84,60,38,29.98,29.91,20,4,22,0.00
2013-7-7,83,70,58,68,64,55,96,80,58,29.94,29.87,12,2,13,0.00
2013-7-8,73,67,64,70,66,63,97,95,87,29.95,29.89,15,3,16,0.56
2013-7-9,78,71,65,70,67,64,98,90,74,29.96,29.68,13,2,13,0.03
2013-7-10,71,67,63,69,62,56,97,82,64,29.91,29.61,23,7,24,0.02
2013-7-11,76,64,51,58,54,50,97,73,47,30.08,29.91,13,2,14,0.00
2013-7-12,79,65,48,60,54,46,98,71,41,30.17,30.07,11,2,12,0.00
2013-7-13,84,72,59,63,58,55,88,65,44,30.16,30.07,17,3,18,0.00
2013-7-14,85,72,57,66,62,55,95,71,49,30.22,30.16,14,3,15,0.00
2013-7-15,88,76,62,69,65,60,95,72,48,30.26,30.19,12,2,13,0.00
2013-7-16,91,78,63,73,68,61,97,74,46,30.23,30.13,20,3,20,0.00
2013-7-17,92,81,71,73,71,67,91,73,48,30.16,30.05,22,4,22,0.00
2013-7-18,86,77,71,77,72,68,96,84,66,30.06,29.71,28,4,37,0.97
2013-7-19,83,75,60,73,68,58,96,80,68,29.72,29.56,30,6,31,0.42
2013-7-20,70,63,54,61,53,45,98,71,43,30.00,29.69,18,4,19,0.01
2013-7-21,74,60,43,60,52,42,97,77,57,30.03,29.92,14,3,15,0.00
2013-7-22,84,72,60,69,63,56,90,73,52,29.92,29.59,18,4,18,0.00
2013-7-23,76,62,56,66,53,46,94,73,58,29.92,29.57,28,8,28,0.14
2013-7-24,70,59,42,54,49,41,97,73,51,30.05,29.92,14,2,14,0.00
2013-7-25,77,63,47,59,53,45,97,73,48,30.05,29.95,17,3,17,0.00
2013-7-26,75,63,58,66,60,55,96,89,70,29.98,29.81,18,3,20,1.01
2013-7-27,62,58,54,58,55,53,97,89,76,29.83,29.75,12,3,12,0.14
2013-7-28,64,58,52,57,53,49,95,83,65,29.86,29.70,19,4,22,0.01
2013-7-29,70,59,53,58,54,51,97,84,53,30.14,29.86,15,3,17,0.02
2013-7-30,74,62,50,62,56,48,98,82,53,30.19,30.08,14,2,14,0.00
2013-7-31,76,65,57,64,60,55,96,84,65,30.08,29.83,19,3,19,0.36
2013-8-1,72,63,54,62,57,52,98,84,60,29.85,29.82,16,2,18,0.01
2013-8-2,72,62,52,62,57,50,98,85,65,29.89,29.77,15,3,16,0.10
2013-8-3,66,59,49,57,53,48,98,82,68,30.06,29.89,19,4,19,0.00
2013-8-4,70,61,51,55,52,48,94,74,53,30.18,30.06,14,3,14,0.00
2013-8-5,74,59,47,58,52,46,98,79,43,30.09,29.87,12,2,12,0.02
2013-8-6,76,67,59,67,62,55,95,82,67,29.87,29.75,13,2,13,0.04
2013-8-7,71,66,58,66,62,54,98,88,73,29.94,29.62,17,4,19,0.04
2013-8-8,72,61,47,59,53,46,98,76,50,30.02,29.94,13,2,13,0.00
2013-8-9,73,63,54,63,56,46,94,78,56,30.01,29.85,21,4,21,0.00
2013-8-10,71,59,44,58,50,42,97,76,49,30.11,30.01,14,3,14,0.00
2013-8-11,73,63,51,63,56,49,98,80,52,30.08,29.99,14,2,16,0.00
2013-8-12,75,64,55,64,59,50,97,84,65,30.00,29.84,21,4,21,0.00
2013-8-13,61,56,51,50,48,44,84,74,57,30.09,29.92,22,7,22,0.00
2013-8-14,67,57,43,54,50,42,97,78,58,30.15,30.07,18,4,19,0.00
2013-8-15,74,61,47,60,52,46,98,75,43,30.08,30.02,14,3,15,0.01
2013-8-16,77,63,49,62,54,48,98,77,44,30.17,30.08,12,2,12,0.01
2013-8-17,80,65,50,60,53,49,98,71,40,30.22,30.14,14,2,16,0.00
2013-8-18,80,65,52,60,54,49,94,71,38,30.18,30.04,17,3,17,0.00
2013-8-19,79,67,53,64,58,51,97,75,52,30.06,29.94,20,4,22,0.00
2013-8-20,84,75,65,67,64,60,86,70,50,30.00,29.93,22,5,23,0.00
2013-8-21,86,77,70,71,66,62,86,70,59,29.96,29.79,29,6,31,0.03
2013-8-22,78,70,57,66,55,49,86,59,40,30.09,29.86,14,4,14,0.00
2013-8-23,77,63,47,59,52,46,98,73,41,30.19,30.08,13,2,13,0.00
2013-8-24,80,66,50,62,55,47,93,71,45,30.26,30.16,13,2,13,0.00
2013-8-25,86,75,57,70,63,55,93,68,60,30.17,29.91,35,8,35,0.00
2013-8-26,82,76,64,72,68,62,95,79,63,29.96,29.87,34,5,34,0.09
2013-8-27,80,70,64,72,67,62,97,92,75,29.91,29.81,8,1,8,0.09
2013-8-28,87,72,59,72,66,58,99,84,54,30.00,29.83,13,2,13,0.00
2013-8-29,85,72,58,71,65,57,99,81,56,30.04,29.89,11,2,12,0.00
2013-8-30,76,72,66,71,67,63,96,86,76,29.90,29.70,17,3,20,0.00
2013-8-31,75,68,59,66,62,57,95,83,68,29.86,29.78,14,2,14,0.00
2013-9-1,73,66,59,69,63,56,97,91,78,29.82,29.63,22,3,22,0.19
2013-9-2,59,56,54,56,52,50,92,85,78,29.89,29.73,23,8,25,0.00
2013-9-3,70,62,55,59,54,51,90,76,53,29.98,29.88,17,4,17,0.00
2013-9-4,66,62,51,60,53,42,89,73,51,30.13,29.86,18,4,19,0.00
2013-9-5,64,54,41,49,44,39,94,72,49,30.31,30.13,13,2,13,0.00
2013-9-6,72,60,45,61,53,43,96,79,60,30.21,29.92,21,3,21,0.00
2013-9-7,79,71,64,71,66,57,94,84,70,29.99,29.82,26,4,26,0.22
2013-9-8,70,60,49,58,52,47,97,78,48,30.13,29.99,15,4,15,0.00
2013-9-9,72,63,53,67,58,50,95,86,75,30.02,29.68,15,3,16,0.01
2013-9-10,83,74,66,72,68,64,98,83,68,29.89,29.68,20,4,20,0.18
2013-9-11,76,68,64,68,65,62,96,89,71,29.92,29.84,15,3,16,0.21
2013-9-12,67,59,51,64,53,44,94,79,61,30.04,29.84,29,8,29,0.00
2013-9-13,58,50,40,47,41,38,93,74,52,30.17,30.04,18,5,18,0.01
2013-9-14,64,51,35,54,45,34,98,83,64,30.13,29.97,22,3,22,0.00
2013-9-15,60,57,49,58,54,45,95,89,78,30.20,29.94,19,4,19,0.16
2013-9-16,57,47,37,45,38,32,93,73,44,30.42,30.20,16,3,16,0.00
2013-9-17,64,46,35,50,41,33,96,83,54,30.40,30.16,12,2,12,0.00
2013-9-18,72,59,44,59,52,42,96,78,57,30.16,29.91,16,2,16,0.00
2013-9-19,79,70,63,71,64,57,94,81,70,29.92,29.71,13,3,13,0.03
2013-9-20,71,66,57,67,64,54,97,92,86,29.72,29.60,20,4,20,0.30
2013-9-21,57,52,47,54,47,40,95,84,66,29.89,29.67,23,6,23,0.01
2013-9-22,54,46,38,45,41,35,94,80,65,30.11,29.89,14,3,14,0.00
2013-9-23,60,46,32,49,40,30,98,82,54,30.21,30.10,12,2,12,0.01
2013-9-24,65,51,38,54,46,36,98,83,60,30.16,30.01,12,2,13,0.00
2013-9-25,70,52,38,54,44,36,98,78,37,30.05,29.98,10,2,10,0.01
2013-9-26,72,53,35,54,45,34,98,77,35,30.13,30.02,10,2,10,0.00
2013-9-27,78,59,43,57,50,41,97,75,38,30.20,30.10,12,2,12,0.00
2013-9-28,78,65,54,57,53,50,90,69,43,30.13,29.79,18,4,19,0.00
2013-9-29,70,58,44,60,50,42,95,78,55,29.99,29.78,22,4,22,0.23
2013-9-30,70,54,38,52,45,37,98,76,41,29.99,29.83,14,2,16,0.01
2013-10-1,77,65,56,63,57,49,86,75,58,29.85,29.67,23,6,25,0.00
2013-10-2,70,60,48,60,48,41,90,66,37,30.05,29.79,14,3,16,0.00
2013-10-3,60,53,43,55,49,40,95,86,70,30.05,29.91,18,5,19,0.36
2013-10-4,57,56,54,54,53,52,95,93,88,30.10,29.92,19,7,20,0.32
2013-10-5,56,53,50,53,51,48,96,92,87,30.10,29.87,26,10,27,1.76
2013-10-6,66,57,51,65,56,50,98,96,93,29.87,29.56,30,5,33,0.33
2013-10-7,56,52,48,54,46,40,98,83,64,30.03,29.51,23,7,23,0.17
2013-10-8,67,53,37,52,44,36,97,75,48,30.18,30.02,16,3,16,0.00
2013-10-9,72,61,48,56,50,46,95,71,49,30.20,30.13,19,3,19,0.00
2013-10-10,71,54,41,53,47,40,98,78,42,30.19,30.10,11,2,11,0.00
2013-10-11,70,54,41,55,47,40,98,80,47,30.15,30.03,17,3,17,0.01
2013-10-12,79,61,47,60,50,41,92,71,37,30.04,29.89,19,4,20,0.03
2013-10-13,61,52,38,57,46,34,89,78,71,30.38,29.98,17,4,18,0.00
2013-10-14,58,43,31,45,37,30,97,81,47,30.45,30.29,12,2,12,0.01
2013-10-15,57,47,33,54,44,32,97,90,70,30.29,29.69,18,4,18,0.29
2013-10-16,56,52,49,55,49,44,97,92,84,29.82,29.62,19,5,20,0.19
2013-10-17,52,47,39,44,41,37,96,81,67,29.84,29.72,15,2,15,0.00
2013-10-18,53,44,35,48,42,34,98,91,75,29.80,29.72,11,2,11,0.14
2013-10-19,50,44,39,43,40,35,96,87,56,29.79,29.66,14,2,15,0.34
2013-10-20,51,43,38,44,39,36,96,88,61,29.81,29.67,17,3,18,0.32
2013-10-21,48,43,34,45,39,30,97,88,68,29.73,29.59,23,6,25,0.38
2013-10-22,44,39,33,37,34,28,95,80,71,29.86,29.61,27,8,27,0.15
2013-10-23,43,37,30,35,32,28,95,80,61,29.86,29.80,23,6,24,0.05
2013-10-24,45,40,38,38,36,32,91,83,69,30.11,29.84,19,7,20,0.06
2013-10-25,45,41,37,39,33,30,91,75,58,30.20,29.74,27,6,37,0.25
2013-10-26,49,42,39,43,38,33,92,83,73,29.92,29.52,33,10,33,0.37
2013-10-27,46,41,37,38,34,32,91,79,67,29.93,29.83,23,4,23,0.02
2013-10-28,39,33,23,32,25,21,89,73,52,30.49,30.17,20,4,20,0.00
2013-10-29,38,30,20,32,25,18,94,83,62,30.51,30.24,10,2,10,0.00
2013-10-30,50,42,35,44,38,32,95,87,74,30.25,29.84,10,3,10,0.02
2013-10-31,58,54,48,57,52,44,98,96,81,29.85,28.98,12,2,13,0.87
2013-11-1,55,46,41,54,44,37,98,92,84,29.65,28.91,32,6,32,0.28
2013-11-2,41,37,31,38,32,28,91,83,70,30.15,29.65,16,4,17,0.00
2013-11-3,44,35,28,31,29,25,92,77,57,30.40,30.15,15,3,15,0.00
2013-11-4,50,41,33,34,31,26,88,68,43,30.41,30.14,20,6,23,0.00
2013-11-5,55,50,45,47,43,33,94,79,63,30.24,29.97,17,4,18,0.08
2013-11-6,52,45,38,51,43,31,96,91,77,29.97,29.63,26,6,26,0.76
2013-11-7,39,38,35,32,31,28,88,77,66,30.05,29.94,20,7,21,0.00
2013-11-8,40,37,35,32,28,25,84,71,60,30.19,30.05,19,4,19,0.00
2013-11-9,45,39,33,44,36,28,96,88,72,30.06,29.60,30,7,31,0.60
2013-11-10,44,40,37,36,33,27,88,76,61,30.16,29.73,30,9,30,0.00
2013-11-11,44,31,26,36,24,17,93,75,59,30.38,29.92,30,10,30,0.16
2013-11-12,30,28,25,24,18,14,83,68,54,30.54,30.38,24,8,25,0.00
2013-11-13,43,36,26,34,27,15,82,68,55,30.43,29.84,32,8,34,0.00
2013-11-14,46,43,40,39,35,31,90,74,64,29.88,29.77,27,8,30,0.03
2013-11-15,51,43,34,42,38,32,96,82,68,29.93,29.81,18,4,20,0.00
2013-11-16,54,46,36,51,42,32,94,86,78,29.94,29.49,23,5,24,0.43
2013-11-17,59,54,44,57,52,42,97,94,90,29.50,28.95,27,6,28,1.89
2013-11-18,44,39,33,42,34,26,92,82,74,30.09,29.16,34,8,35,0.03
2013-11-19,33,33,33,26,26,26,76,76,76,30.36,30.10,0,0,0,0.00
2013-11-20,33,33,33,26,26,26,76,76,76,30.31,30.16,0,0,0,0.00
2013-11-21,33,33,33,26,26,26,76,76,76,30.17,30.12,0,0,0,0.00
2013-11-22,33,33,33,26,26,26,76,76,76,30.31,30.13,0,0,0,0.00
2013-11-23,33,20,0,26,16,0,76,46,76,30.44,30.17,0,0,0,0.00
2013-11-24,0,0,0,0,0,0,0,0,100,30.48,30.08,0,0,0,0.00
2013-11-25,0,0,0,0,0,0,0,0,100,30.08,29.76,0,0,0,0.00
2013-11-26,0,0,0,0,0,0,0,0,100,30.00,29.83,0,0,0,0.00
2013-11-27,0,0,0,0,0,0,0,0,100,30.14,29.96,0,0,0,0.00
2013-11-28,0,0,0,0,0,0,0,0,100,30.40,30.14,0,0,0,0.00
2013-11-29,0,0,0,0,0,0,0,0,100,30.57,30.41,7,2,11,0.00
2013-11-30,0,0,0,0,0,0,0,0,100,30.41,29.98,14,5,16,0.00
2013-12-1,0,0,0,0,0,0,0,0,100,30.08,29.99,7,2,10,0.00
2013-12-2,0,0,0,0,0,0,0,0,100,29.99,29.87,4,2,5,0.00
2013-12-3,0,0,0,0,0,0,0,0,100,29.94,29.88,11,5,11,0.00
2013-12-4,42,24,0,40,23,0,95,59,90,29.90,29.40,28,12,28,0.26
2013-12-5,48,32,21,46,26,12,97,79,67,30.06,29.38,40,11,40,0.03
2013-12-6,22,20,18,14,12,9,77,70,61,30.36,30.06,25,8,25,0.00
2013-12-7,20,18,16,12,9,5,74,68,59,30.53,30.36,26,8,26,0.00
2013-12-8,20,16,12,18,11,5,90,79,65,30.54,30.07,18,4,19,0.00
2013-12-9,27,22,12,24,18,6,93,85,70,30.07,29.73,32,7,32,0.00
2013-12-10,18,14,12,14,9,5,89,80,69,30.05,29.74,26,6,26,0.00
2013-12-11,15,13,11,7,3,0,71,65,57,30.33,30.04,26,10,26,0.00
2013-12-12,19,15,11,11,8,2,87,75,64,30.32,30.03,25,9,26,0.00
2013-12-13,19,8,-5,12,1,-9,84,73,59,30.45,30.03,27,6,29,0.00
2013-12-14,20,14,3,16,9,-3,89,82,66,30.45,29.93,20,6,20,0.00
2013-12-15,20,15,2,16,12,-2,90,88,82,30.02,29.69,14,4,15,0.00
2013-12-16,15,-1,-19,11,-5,-24,88,82,76,30.18,29.97,17,4,18,0.00
2013-12-17,27,20,15,23,17,11,92,89,84,29.97,29.80,20,4,20,0.00
2013-12-18,25,22,19,21,17,12,91,81,74,30.01,29.73,20,6,20,0.00
2013-12-19,29,25,20,26,21,16,90,84,78,30.09,29.71,18,5,18,0.00
2013-12-20,22,19,17,20,16,14,93,90,82,30.06,29.87,13,4,14,0.00
2013-12-21,24,22,20,22,20,18,93,92,90,30.02,29.85,21,4,24,0.00
2013-12-22,24,18,11,21,15,9,92,91,86,30.09,29.82,24,7,24,0.00
2013-12-23,11,8,2,9,5,-1,90,89,86,30.39,30.09,10,2,10,0.00
2013-12-24,14,-2,-19,11,-6,-23,88,85,80,30.53,30.39,9,2,9,0.02
2013-12-25,22,17,6,21,14,2,94,91,87,30.46,30.03,23,6,25,0.00
2013-12-26,21,18,14,18,16,11,93,91,87,30.22,30.00,14,4,15,0.00
2013-12-27,37,19,-3,35,17,-7,92,89,85,30.25,29.86,22,4,22,0.02
2013-12-28,39,33,24,33,30,23,96,91,78,29.97,29.73,19,3,19,0.24
2013-12-29,32,17,6,31,14,1,97,88,76,30.08,29.68,26,8,28,0.00
2013-12-30,14,7,-8,9,4,-12,91,84,76,30.24,30.08,15,3,15,0.00
2013-12-31,11,8,6,8,3,-2,91,77,64,30.33,30.01,29,8,29,0.00
2014-1-1,8,3,-6,2,-1,-9,90,82,71,30.51,30.32,16,4,17,0.00
2014-1-2,6,-4,-18,1,-8,-22,88,83,71,30.45,30.36,13,2,13,0.00